DELTA 1 DEB, 7018

Orbit data source: Space-Track

DELTA 1 DEB, 7018 is space debris in SSO originally from a launch on Tue, 06 Nov 1973 UTC launched from the Air Force Western Test Range (AFWTR). Debris objects in space refer to the collection of defunct objects orbiting the Earth. Examples of debris include non-operational satellites, rocket bodies, and fragments generated from explosions, collisions, or faulty payload assembly.

Loading next visibility...
Identifier
7018, 1973-086J
Orbit
SSO
Country
Flag of USUS
Related business
Manufacturer
Unknown
Mission
Spacecraft
Bus & Motor
Unknown
Mass
Unknown
Launch date (UTC)
1973-11-06 (53 years ago)
Launch vehicle
Unknown
Launch site
Air Force Western Test Range (AFWTR)
Object type
Payload
Rocket body
Debris
Shape & HBR
Unknown shape, 0.9 m
Radar Cross Section
Large (>1 m²)

Expand to show TLE details & history
Last TLE update: 21 hours ago

TLE from 21 hours ago
0 DELTA 1 DEB
1 07018U 73086J   26206.51212222  .00000000  00000-0  34916-3 0  9999
2 07018 102.3191 227.8034 0012271  19.0291 149.7951 12.39210614383184
Epoch: 2026-07-25T12:17Z
TLE epoch observation values (Epoch: 2026-07-25T12:17:27.359Z)
Latitude
10.80325°
Longitude
-77.40728°
Altitude
1,520.11 km
Speed
7.102 km/s
True Right ascension
03h 20m 43s
True Declination
10° 44' 46"
Sunlit
Object was in daylight at epoch
Visualization orbit readout
Latitude
Unknown
Longitude
Unknown
Altitude
Unknown
Speed
Unknown
Apparent Right ascension
Unknown
Apparent Declination
Unknown
Sunlit
N/A
Visualization observer readout
Local Sidereal Time
22:22:10
Azimuth
Unknown
Elevation
Unknown
Doppler factor
Unknown
Orbital elements
Apogee altitude
1,517.223 km
Perigee altitude
1,497.87 km
Semi-major axis
7,885.683 km
Eccentricity
0.00123
Inclination
102.3191°
RAAN
227.8034°
Arg. of periapsis
19.0291°
True anomaly
149.86575°
Mean anomaly
149.7951°
Eccentric anomaly
149.83043°
Mean motion
3.09945 °/min
Orbital period
116.15 mins
BSTAR
0.00034916
Loading maneuver chart data...
Computing Atmospheric mass density...
Loading historical data...
Loading historical data...
Loading historical data...
Loading historical data...
Loading historical data...
Loading historical data...
Loading historical data...

Documentation

Showing up to 5 results
|